FW3322 Weather Reports


Display with metric or nautical units.
time (UTC)temp
F
wind
direction
speed
MPH
gust
MPH
rain 1hr
in
rain 24hr
in
rain mn
in
humidity
%
barometer
mb
20260508110048 52 148 0.0 4.0 0.00 0.00 0.00 84 1012.9
20260508104547 52 160 1.0 5.0 0.00 0.00 0.00 84 1012.7
20260508103050 52 139 0.0 2.0 0.00 0.00 0.00 84 1012.8
20260508101548 51 142 0.0 5.0 0.00 0.00 0.00 84 1012.8
20260508100044 51 142 0.0 3.0 0.00 0.00 0.00 85 1012.6
20260508094545 51 157 0.0 2.0 0.00 0.00 0.00 84 1012.8
20260508093042 51 117 0.0 2.0 0.00 0.00 0.00 84 1012.8
20260508091549 52 140 0.0 2.0 0.00 0.00 0.00 84 1012.8
20260508090040 52 128 0.0 5.0 0.00 0.00 0.00 82 1012.7
20260508084536 52 143 0.0 2.0 0.00 0.00 0.00 82 1012.8
20260508083038 53 135 0.0 5.0 0.00 0.00 0.00 81 1013.1
20260508081532 53 136 0.0 4.0 0.00 0.00 0.00 81 1013.2
20260508080050 54 200 0.0 4.0 0.00 0.00 0.00 80 1013.3
20260508074527 54 146 0.0 2.0 0.00 0.00 0.00 79 1013.5
20260508073024 54 144 0.0 6.0 0.00 0.00 0.00 78 1013.5
20260508071525 54 145 3.0 9.0 0.00 0.00 0.00 79 1013.6
20260508070024 55 145 1.0 5.0 0.00 0.00 0.00 78 1013.6
20260508064537 55 151 3.0 7.0 0.00 0.00 0.00 78 1013.7
20260508063018 55 159 2.0 6.0 0.00 0.00 0.00 77 1013.8
20260508061519 56 161 1.0 6.0 0.00 0.00 0.00 77 1014.0
20260508060017 56 146 3.0 6.0 0.00 0.00 0.00 76 1014.1
20260508054524 55 132 3.0 6.0 0.00 0.00 0.00 77 1014.2
20260508053011 55 146 1.0 5.0 0.00 0.00 0.00 78 1014.2
20260508051508 54 153 1.0 4.0 0.00 0.00 0.00 79 1014.2
20260508050009 55 139 1.0 4.0 0.00 0.00 0.00 78 1014.4
20260508044505 55 162 1.0 5.0 0.00 0.00 0.00 78 1014.4
20260508043005 55 136 0.0 4.0 0.00 0.00 0.00 79 1014.5
20260508041504 55 142 0.0 2.0 0.00 0.00 0.00 79 1014.6
20260508040012 55 178 1.0 4.0 0.00 0.00 0.00 77 1014.8
20260508034503 56 156 1.0 4.0 0.00 0.00 0.00 76 1014.9
20260508033004 56 150 1.0 3.0 0.00 0.00 0.00 76 1015.0
20260508031508 56 171 1.0 4.0 0.00 0.00 0.00 76 1015.1
20260508030000 56 148 1.0 3.0 0.00 0.00 0.00 76 1015.1
20260508024602 56 148 0.0 2.0 0.00 0.00 0.00 76 1015.0
20260508023101 56 128 0.0 1.0 0.00 0.00 0.00 76 1014.8
20260508021600 57 139 0.0 1.0 0.00 0.00 0.00 74 1014.7
20260508020100 57 140 1.0 2.0 0.00 0.00 0.00 73 1014.6
20260508014558 59 131 1.0 2.0 0.00 0.00 0.00 71 1014.5
20260508013058 61 155 0.0 1.0 0.00 0.00 0.00 67 1014.4
20260508011558 62 140 0.0 1.0 0.00 0.00 0.00 65 1014.2
20260508010057 64 148 1.0 5.0 0.00 0.00 0.00 62 1014.2
20260508004601 66 173 1.0 6.0 0.00 0.00 0.00 59 1014.1
20260508003056 68 138 1.0 6.0 0.00 0.00 0.00 58 1014.1
20260508001556 69 132 1.0 7.0 0.00 0.00 0.00 55 1014.1
20260508000059 69 246 0.0 7.0 0.00 0.00 0.00 55 1014.0
20260507234559 69 215 3.0 9.0 0.00 0.00 0.00 52 1014.0
20260507233113 69 184 4.0 12.0 0.00 0.00 0.00 53 1014.1
20260507231552 70 157 4.0 10.0 0.00 0.00 0.00 53 1014.2
20260507230052 70 183 4.0 9.0 0.00 0.00 0.00 52 1014.4
20260507224550 69 223 4.0 10.0 0.00 0.00 0.00 52 1014.4
20260507223057 69 226 4.0 12.0 0.00 0.00 0.00 52 1014.7
20260507221547 69 196 4.0 11.0 0.00 0.00 0.00 52 1014.8
20260507220043 70 249 3.0 8.0 0.00 0.00 0.00 54 1015.1
20260507214542 69 198 3.0 13.0 0.00 0.00 0.00 52 1015.1
20260507213042 68 213 4.0 10.0 0.00 0.00 0.00 53 1015.1
20260507211547 69 213 3.0 13.0 0.00 0.00 0.00 54 1015.4
20260507210050 69 192 1.0 13.0 0.00 0.00 0.00 54 1015.6
20260507204540 69 196 3.0 13.0 0.00 0.00 0.00 54 1015.8
20260507203034 69 156 5.0 10.0 0.00 0.00 0.00 55 1016.2
20260507201528 68 217 5.0 12.0 0.00 0.00 0.00 54 1016.4
20260507200025 68 312 4.0 12.0 0.00 0.00 0.00 54 1016.7
20260507194533 68 227 5.0 12.0 0.00 0.00 0.00 53 1017.1
20260507193021 68 205 3.0 9.0 0.00 0.00 0.00 54 1017.4
20260507191519 67 273 3.0 11.0 0.00 0.00 0.00 55 1017.6
20260507190020 66 166 4.0 12.0 0.00 0.00 0.00 54 1017.7
20260507184521 67 61 2.0 9.0 0.00 0.00 0.00 54 1017.8
20260507183015 66 325 7.0 18.0 0.00 0.00 0.00 54 1017.9
20260507181511 67 229 3.0 9.0 0.00 0.00 0.00 54 1018.1
20260507180015 66 214 3.0 8.0 0.00 0.00 0.00 52 1018.3
20260507174511 66 205 3.0 9.0 0.00 0.00 0.00 54 1018.5
20260507173011 66 312 3.0 9.0 0.00 0.00 0.00 56 1018.8
20260507171601 65 234 4.0 9.0 0.00 0.00 0.00 57 1019.1
20260507170100 64 297 4.0 13.0 0.00 0.00 0.00 55 1019.2
20260507164629 64 139 3.0 8.0 0.00 0.00 0.00 56 1019.6
20260507163056 64 218 2.0 8.0 0.00 0.00 0.00 56 1019.8
20260507161557 63 275 4.0 14.0 0.00 0.00 0.00 55 1019.9
20260507160050 63 220 2.0 9.0 0.00 0.00 0.00 56 1019.9
20260507154551 62 158 3.0 8.0 0.00 0.00 0.00 57 1019.8
20260507153046 62 220 1.0 9.0 0.00 0.00 0.00 58 1019.9
20260507151546 61 138 0.0 8.0 0.00 0.00 0.00 60 1020.0
20260507150045 60 129 2.0 9.0 0.00 0.00 0.00 60 1020.3
20260507144540 60 168 2.0 8.0 0.00 0.00 0.00 63 1020.6
20260507143041 59 146 1.0 6.0 0.00 0.00 0.00 64 1020.3
20260507141534 58 158 0.0 4.0 0.00 0.00 0.00 66 1020.5
20260507140029 57 158 1.0 5.0 0.00 0.00 0.00 67 1020.6
20260507134526 56 221 1.0 5.0 0.00 0.00 0.00 67 1020.7
20260507133025 54 221 1.0 4.0 0.00 0.00 0.00 72 1020.6
20260507131519 53 195 0.0 5.0 0.00 0.00 0.00 75 1020.6
20260507130014 52 146 0.0 2.0 0.00 0.00 0.00 79 1020.6
20260507124513 50 136 0.0 2.0 0.00 0.00 0.00 84 1020.6
20260507123006 48 132 0.0 2.0 0.00 0.00 0.00 91 1020.4
20260507121505 0 0.0 0.0 0.00 0.00 0.00 1020.4
20260507120058 0 0.0 0.0 0.00 0.00 0.00 1020.2
20260507114607 0 0.0 0.0 0.00 0.00 0.00 1020.1
20260507113112 41 148 0.0 0.0 0.00 0.00 0.00 95 1020.1
20260507111555 42 148 0.0 0.0 0.00 0.00 0.00 95 1020.1